M I D A S
Marine Information and Data Acquisition System
Tripno 1782 of the Zeeleeuw from 2009-09-22 06:49:20 to 2009-09-22 14:29:12
Back to CruiseResearch ActivitiesStationsMapUnderway DataData graphs

EquipmentUnitsComment
TimeDGPSUTC
LatitudeDGPSDM.mWGS84
LongitudeDGPSDM.mWGS84
HeadingGyrodeg 
SOGDGPSknotsSpeed over ground
COGDGPSdegCourse over ground
DepthEcho soundermeters200 kHz
Missing or incorrect values are displayed as -999
Navigation data collected by the RV Zeeleeuw from 2009-09-22 06:50:13 to 2009-09-22 14:35:28
                                                                                    Next 1000 lines
Time Latitude Longitude Heading SOG COG Depth
2009-09-22 06:50:24 51°13.662 2°55.96 130.7 0.1 32 7.2
2009-09-22 06:50:28 51°13.662 2°55.96 130.5 0.1 65 7.2
2009-09-22 06:50:33 51°13.662 2°55.96 130 -999 42 5.4
2009-09-22 06:50:39 51°13.662 2°55.96 129.7 -999 146 7.2
2009-09-22 06:50:43 51°13.662 2°55.96 129.6 -999 199 7.2
2009-09-22 06:50:48 51°13.662 2°55.96 129.6 0.1 200 7.2
2009-09-22 06:50:53 51°13.662 2°55.96 129.6 -999 197 5.4
2009-09-22 06:50:58 51°13.662 2°55.96 129.8 -999 258 7.2
2009-09-22 06:51:04 51°13.662 2°55.96 129.9 -999 212 7.2
2009-09-22 06:51:09 51°13.662 2°55.96 130 -999 346 7.2
2009-09-22 06:51:13 51°13.662 2°55.96 130 -999 31 7.1
2009-09-22 06:51:19 51°13.662 2°55.96 130 -999 203 7.1
2009-09-22 06:51:23 51°13.662 2°55.96 130 -999 160 7.1
2009-09-22 06:51:28 51°13.661 2°55.96 130 -999 44 5.4
2009-09-22 06:51:33 51°13.661 2°55.96 129.9 -999 331 7.1
2009-09-22 06:51:39 51°13.661 2°55.96 129.9 -999 6 7.1
2009-09-22 06:51:43 51°13.661 2°55.96 129.9 -999 205 7.1
2009-09-22 06:51:49 51°13.661 2°55.96 129.9 -999 80 7.1
2009-09-22 06:51:53 51°13.661 2°55.96 129.9 -999 123 7.1
2009-09-22 06:51:59 51°13.661 2°55.96 129.8 -999 64 7.1
2009-09-22 06:52:03 51°13.662 2°55.96 129.8 -999 4 7.1
2009-09-22 06:52:09 51°13.662 2°55.96 129.7 -999 293 5.4
2009-09-22 06:52:13 51°13.662 2°55.96 129.7 -999 215 7.1
2009-09-22 06:52:19 51°13.662 2°55.96 129.7 -999 51 7.1
2009-09-22 06:52:23 51°13.662 2°55.96 129.7 -999 297 5.4
2009-09-22 06:52:28 51°13.662 2°55.96 129.7 -999 204 7.1
2009-09-22 06:52:33 51°13.662 2°55.96 129.7 -999 148 7.1
2009-09-22 06:52:38 51°13.662 2°55.96 129.7 -999 45 7.1
2009-09-22 06:52:43 51°13.662 2°55.96 129.7 -999 167 7.1
2009-09-22 06:52:48 51°13.662 2°55.96 129.7 -999 189 7.1
2009-09-22 06:52:53 51°13.662 2°55.96 129.7 -999 347 7.1
2009-09-22 06:52:58 51°13.662 2°55.96 129.7 -999 270 7.1
2009-09-22 06:53:04 51°13.662 2°55.96 129.7 -999 22 5.3
2009-09-22 06:53:08 51°13.662 2°55.96 129.7 -999 20 7.1
2009-09-22 06:53:13 51°13.662 2°55.96 129.6 -999 67 5.3
2009-09-22 06:53:19 51°13.662 2°55.96 129.6 -999 205 7.1
2009-09-22 06:53:23 51°13.662 2°55.96 129.6 -999 27 7.1
2009-09-22 06:53:28 51°13.662 2°55.96 129.6 -999 181 5.3
2009-09-22 06:53:33 51°13.662 2°55.96 129.6 -999 147 7
2009-09-22 06:53:38 51°13.662 2°55.959 129.6 -999 305 7
2009-09-22 06:53:44 51°13.662 2°55.959 129.7 -999 16 5.3
2009-09-22 06:53:49 51°13.663 2°55.959 129.7 -999 353 -999
2009-09-22 06:53:54 51°13.663 2°55.959 129.7 -999 6 7.1
2009-09-22 06:53:59 51°13.663 2°55.959 129.7 -999 16 7.1
2009-09-22 06:54:04 51°13.663 2°55.959 129.7 0.1 26 5.3
2009-09-22 06:54:09 51°13.663 2°55.959 129.7 -999 60 7
2009-09-22 06:54:13 51°13.663 2°55.959 129.5 -999 99 7
2009-09-22 06:54:19 51°13.663 2°55.959 128.9 -999 80 7.1
2009-09-22 06:54:23 51°13.662 2°55.96 127.9 0.1 84 5.3
2009-09-22 06:54:28 51°13.662 2°55.96 126.6 0.1 187 5.3
2009-09-22 06:54:33 51°13.662 2°55.96 125.1 -999 125 5.3
2009-09-22 06:54:38 51°13.663 2°55.96 124.1 0.1 203 7
2009-09-22 06:54:43 51°13.663 2°55.96 123.4 0.1 181 7
2009-09-22 06:54:48 51°13.663 2°55.96 122.3 0.1 190 7
2009-09-22 06:54:53 51°13.662 2°55.96 121.3 0.1 186 7
2009-09-22 06:54:58 51°13.662 2°55.96 120.2 0.1 187 7
2009-09-22 06:55:03 51°13.662 2°55.96 119.2 0.1 193 7.1
2009-09-22 06:55:09 51°13.662 2°55.96 117.8 0.1 196 5.3
2009-09-22 06:55:13 51°13.661 2°55.96 116.8 0.1 193 7
2009-09-22 06:55:19 51°13.661 2°55.96 115.6 0.1 200 7
2009-09-22 06:55:23 51°13.661 2°55.96 114.5 -999 201 7
2009-09-22 06:55:28 51°13.66 2°55.96 113.5 0.1 197 5.3
2009-09-22 06:55:33 51°13.66 2°55.96 112.8 0.1 278 7.1
2009-09-22 06:55:39 51°13.661 2°55.959 112.3 0.4 290 7.1
2009-09-22 06:55:43 51°13.661 2°55.958 112 0.6 293 7.1
2009-09-22 06:55:48 51°13.662 2°55.956 111.9 0.9 293 5.4
2009-09-22 06:55:53 51°13.662 2°55.954 111.8 1.2 294 7.1
2009-09-22 06:55:58 51°13.663 2°55.951 111.7 1.5 294 7.2
2009-09-22 06:56:03 51°13.664 2°55.947 111.9 1.7 294 7.1
2009-09-22 06:56:09 51°13.666 2°55.943 112.2 2.1 295 5.4
2009-09-22 06:56:14 51°13.667 2°55.938 112.6 2.6 296 -999
2009-09-22 06:56:20 51°13.669 2°55.931 113 2.9 296 -999
2009-09-22 06:56:25 51°13.671 2°55.925 113 3.1 297 -999
2009-09-22 06:56:32 51°13.674 2°55.916 113 3.4 296 -999
2009-09-22 06:56:37 51°13.676 2°55.908 112.8 3.6 296 -999
2009-09-22 06:56:42 51°13.678 2°55.901 112.3 3.7 295 -999
2009-09-22 06:56:47 51°13.68 2°55.893 111.2 3.9 294 -999
2009-09-22 06:56:52 51°13.683 2°55.885 110 4 293 -999
2009-09-22 06:56:57 51°13.685 2°55.877 109.1 4 292 -999
2009-09-22 06:57:02 51°13.686 2°55.869 107.6 4 290 -999
2009-09-22 06:57:07 51°13.688 2°55.861 105.7 3.9 288 -999
2009-09-22 06:57:12 51°13.69 2°55.853 103.5 3.8 286 -999
2009-09-22 06:57:17 51°13.691 2°55.845 101 3.8 284 -999
2009-09-22 06:57:22 51°13.692 2°55.836 98.7 3.7 282 -999
2009-09-22 06:57:27 51°13.693 2°55.829 96.5 3.7 279 -999
2009-09-22 06:57:32 51°13.693 2°55.821 94.3 3.6 279 -999
2009-09-22 06:57:37 51°13.694 2°55.812 91.7 3.6 277 -999
2009-09-22 06:57:42 51°13.694 2°55.805 90.1 3.6 274 -999
2009-09-22 06:57:47 51°13.695 2°55.797 87.7 3.5 273 -999
2009-09-22 06:57:52 51°13.695 2°55.789 85.1 3.4 271 -999
2009-09-22 06:57:57 51°13.695 2°55.782 82.4 3.3 269 -999
2009-09-22 06:58:02 51°13.694 2°55.775 79.7 3.2 266 -999
2009-09-22 06:58:07 51°13.694 2°55.768 77.1 3 262 -999
2009-09-22 06:58:12 51°13.693 2°55.762 74.8 2.8 262 -999
2009-09-22 06:58:17 51°13.693 2°55.756 72.7 2.7 261 -999
2009-09-22 06:58:22 51°13.692 2°55.75 71.1 2.6 259 -999
2009-09-22 06:58:27 51°13.691 2°55.745 69.4 2.4 258 -999
2009-09-22 06:58:32 51°13.691 2°55.74 68.1 2 259 -999
2009-09-22 06:58:37 51°13.69 2°55.737 66.5 1.6 262 12.4
2009-09-22 06:58:41 51°13.69 2°55.735 64.6 1.2 265 12.5
2009-09-22 06:58:46 51°13.69 2°55.733 62.8 0.8 277 12.6
2009-09-22 06:58:52 51°13.69 2°55.732 58.2 0.5 309 12.7
2009-09-22 06:58:56 51°13.691 2°55.731 53.6 0.6 347 12.7
2009-09-22 06:59:01 51°13.692 2°55.731 48.5 0.7 5 12.4
2009-09-22 06:59:07 51°13.694 2°55.732 44.3 1 9 12.3
2009-09-22 06:59:12 51°13.695 2°55.733 37.3 1.2 14 12.3
2009-09-22 06:59:17 51°13.697 2°55.733 32.8 1.4 11 12.4
2009-09-22 06:59:22 51°13.699 2°55.734 26.3 1.5 9 12.2
2009-09-22 06:59:26 51°13.701 2°55.734 22.1 1.7 5 12.1
2009-09-22 06:59:31 51°13.704 2°55.734 15.9 1.9 2 12.1
2009-09-22 06:59:37 51°13.707 2°55.734 11.7 2 358 11.8
2009-09-22 06:59:41 51°13.71 2°55.733 5.2 2.2 353 11.6
2009-09-22 06:59:46 51°13.713 2°55.732 359.9 2.4 348 11.7
2009-09-22 06:59:51 51°13.717 2°55.73 355.6 2.9 345 11.3
2009-09-22 06:59:56 51°13.721 2°55.727 349.4 3.2 338 11.4
2009-09-22 07:00:01 51°13.726 2°55.724 342.1 3.8 337 11
2009-09-22 07:00:06 51°13.731 2°55.719 339.2 4.2 334 11
2009-09-22 07:00:11 51°13.737 2°55.714 336.4 4.7 333 11.2
2009-09-22 07:00:15 51°13.742 2°55.71 335.4 5.1 332 11.1
2009-09-22 07:00:21 51°13.75 2°55.703 334.7 5.6 332 11
2009-09-22 07:00:26 51°13.758 2°55.697 334.3 5.9 331 10.9
2009-09-22 07:00:30 51°13.764 2°55.691 333.8 6.3 331 10.9
2009-09-22 07:00:35 51°13.773 2°55.684 333.7 6.7 332 10.8
2009-09-22 07:00:40 51°13.781 2°55.677 333.7 7 332 10.7
2009-09-22 07:00:45 51°13.79 2°55.669 333.9 7.3 332 10.6
2009-09-22 07:00:50 51°13.8 2°55.661 334 7.5 332 10.4
2009-09-22 07:00:55 51°13.809 2°55.653 334.1 7.8 332 10.4
2009-09-22 07:01:00 51°13.82 2°55.644 334.2 8 332 10.4
2009-09-22 07:01:05 51°13.83 2°55.636 334.2 8.2 332 10.3
2009-09-22 07:01:10 51°13.84 2°55.627 334.3 8.4 332 10.7
2009-09-22 07:01:14 51°13.849 2°55.62 334.7 8.6 333 10.2
2009-09-22 07:01:20 51°13.862 2°55.61 335.5 8.7 334 10.7
2009-09-22 07:01:24 51°13.871 2°55.603 336.1 8.8 334 10.7
2009-09-22 07:01:30 51°13.884 2°55.593 336.2 8.9 334 10.7
2009-09-22 07:01:34 51°13.893 2°55.586 335.7 8.9 333 10.5
2009-09-22 07:01:39 51°13.904 2°55.577 335.4 9 334 10.5
2009-09-22 07:01:44 51°13.915 2°55.569 336.1 7.5 334 10.6
2009-09-22 07:01:49 51°13.926 2°55.56 336.2 9.1 334 10.6
2009-09-22 07:01:54 51°13.937 2°55.551 335.7 9.2 333 10.5
2009-09-22 07:01:59 51°13.949 2°55.542 335.9 9.3 334 10.6
2009-09-22 07:02:04 51°13.96 2°55.533 336.4 9.3 334 10.6
2009-09-22 07:02:09 51°13.972 2°55.524 336.2 9.3 333 10.6
2009-09-22 07:02:13 51°13.981 2°55.516 336 9.3 334 10.5
2009-09-22 07:02:19 51°13.995 2°55.506 336.9 9.3 335 10.4
2009-09-22 07:02:24 51°14.007 2°55.497 337.2 9.3 335 10.4
2009-09-22 07:02:29 51°14.018 2°55.488 336.8 9.3 334 10.2
2009-09-22 07:02:34 51°14.03 2°55.479 336.6 9.4 334 10.1
2009-09-22 07:02:39 51°14.042 2°55.47 337.2 9.5 335 10.1
2009-09-22 07:02:43 51°14.052 2°55.463 337.6 9.6 335 10.1
2009-09-22 07:02:49 51°14.066 2°55.452 337.8 9.5 335 10
2009-09-22 07:02:54 51°14.078 2°55.443 337.1 9.6 334 9.9
2009-09-22 07:02:58 51°14.088 2°55.435 335.6 9.7 333 9.3
2009-09-22 07:03:04 51°14.102 2°55.423 335.4 9.7 333 9.9
2009-09-22 07:03:09 51°14.114 2°55.414 336.1 9.7 334 10
2009-09-22 07:03:14 51°14.126 2°55.403 334.9 9.8 331 10.2
2009-09-22 07:03:18 51°14.136 2°55.395 333.2 9.8 331 10.2
2009-09-22 07:03:23 51°14.147 2°55.384 332.5 9.8 329 10.2
2009-09-22 07:03:29 51°14.161 2°55.37 332.2 9.8 330 10.2
2009-09-22 07:03:34 51°14.173 2°55.359 331.4 9.8 328 10.2
2009-09-22 07:03:39 51°14.184 2°55.347 330.5 9.8 327 10.3
2009-09-22 07:03:43 51°14.193 2°55.337 329.5 9.7 325 10.4
2009-09-22 07:03:49 51°14.206 2°55.322 328 9.8 324 10.2
2009-09-22 07:03:54 51°14.217 2°55.308 326.2 9.8 322 10.3
2009-09-22 07:03:59 51°14.227 2°55.294 324.7 9.9 321 10.2
2009-09-22 07:04:04 51°14.238 2°55.28 322.8 9.9 319 10.2
2009-09-22 07:04:09 51°14.248 2°55.264 320.6 10 317 10.2
2009-09-22 07:04:14 51°14.257 2°55.248 318.2 10.1 315 10.1
2009-09-22 07:04:19 51°14.267 2°55.232 317.1 10.2 315 10.1
2009-09-22 07:04:23 51°14.275 2°55.219 316.6 10.3 314 10.1
2009-09-22 07:04:29 51°14.287 2°55.199 316 10.4 313 10.1
2009-09-22 07:04:33 51°14.295 2°55.185 315.2 10.7 312 9.7
2009-09-22 07:04:38 51°14.305 2°55.167 314.1 10.9 311 9.9
2009-09-22 07:04:43 51°14.315 2°55.148 313.2 11.1 311 10.1
2009-09-22 07:04:49 51°14.327 2°55.126 313.2 11.1 312 10.3
2009-09-22 07:04:53 51°14.336 2°55.112 313.8 11.3 312 10.4
2009-09-22 07:04:58 51°14.346 2°55.093 313.9 11.3 312 10.2
2009-09-22 07:05:03 51°14.357 2°55.074 313.9 11.3 313 10
2009-09-22 07:05:08 51°14.368 2°55.058 316.4 11.3 318 9.8
2009-09-22 07:05:13 51°14.38 2°55.041 319.7 11.2 319 9.5
2009-09-22 07:05:18 51°14.392 2°55.025 320.9 11.2 319 9.3
2009-09-22 07:05:23 51°14.404 2°55.009 321.3 11.2 320 9.2
2009-09-22 07:05:28 51°14.416 2°54.994 322.8 11.2 321 9.3
2009-09-22 07:05:33 51°14.428 2°54.978 324.5 11.3 322 9.4
2009-09-22 07:05:38 51°14.441 2°54.963 326 11.3 323 9.4
2009-09-22 07:05:43 51°14.453 2°54.948 327.4 11.3 324 9.4
2009-09-22 07:05:48 51°14.466 2°54.934 329 11.3 325 9.4
2009-09-22 07:05:53 51°14.479 2°54.92 330.9 11.3 325 9.4
2009-09-22 07:05:58 51°14.492 2°54.905 331.7 11.4 323 9.5
2009-09-22 07:06:02 51°14.502 2°54.892 331.4 11.4 323 9.4
2009-09-22 07:06:08 51°14.517 2°54.875 332.5 11.3 325 9.4
2009-09-22 07:06:13 51°14.531 2°54.862 336.1 11.2 329 9.3
2009-09-22 07:06:18 51°14.544 2°54.85 338.3 11.2 329 9.1
2009-09-22 07:06:22 51°14.555 2°54.838 336.8 11.3 326 9.1
2009-09-22 07:06:28 51°14.571 2°54.823 336.3 11.3 329 9
2009-09-22 07:06:33 51°14.584 2°54.81 337.1 11.3 329 9
2009-09-22 07:06:38 51°14.598 2°54.797 337.6 11.3 330 8.9
2009-09-22 07:06:43 51°14.611 2°54.784 337.6 11.3 328 8.9
2009-09-22 07:06:48 51°14.625 2°54.771 337.1 11.3 328 9
2009-09-22 07:06:53 51°14.638 2°54.758 336.9 11.3 328 8.8
2009-09-22 07:06:58 51°14.652 2°54.744 336.8 11.3 329 8.9
2009-09-22 07:07:03 51°14.665 2°54.731 336.7 11.4 328 9
2009-09-22 07:07:08 51°14.679 2°54.718 336.7 11.4 329 8.9
2009-09-22 07:07:13 51°14.693 2°54.705 337 11.3 329 9
2009-09-22 07:07:18 51°14.706 2°54.692 337.3 11.4 329 8.8
2009-09-22 07:07:23 51°14.72 2°54.68 337.3 11.3 329 8.9
2009-09-22 07:07:28 51°14.733 2°54.666 336.9 11.3 328 8.8
2009-09-22 07:07:33 51°14.746 2°54.654 336.5 11.3 329 8.9
2009-09-22 07:07:38 51°14.759 2°54.64 336.4 11.3 328 8.9
2009-09-22 07:07:42 51°14.77 2°54.63 336.4 11.4 329 9.1
2009-09-22 07:07:48 51°14.787 2°54.614 336.9 11.4 329 8.8
2009-09-22 07:07:53 51°14.801 2°54.602 337.4 11.3 330 8.6
2009-09-22 07:07:58 51°14.814 2°54.589 337.6 11.3 329 8.7
2009-09-22 07:08:02 51°14.825 2°54.579 337.3 11.3 330 8.7
2009-09-22 07:08:08 51°14.841 2°54.564 336.9 11.3 329 8.8
2009-09-22 07:08:13 51°14.855 2°54.551 336.6 11.3 329 8.8
2009-09-22 07:08:18 51°14.868 2°54.538 336.2 11.3 329 8.8
2009-09-22 07:08:22 51°14.879 2°54.527 336.1 11.3 329 8.9
2009-09-22 07:08:28 51°14.895 2°54.512 336.1 11.3 329 8.8
2009-09-22 07:08:33 51°14.908 2°54.5 336.8 11.3 331 9
2009-09-22 07:08:38 51°14.922 2°54.487 337.5 11.3 330 8.9
2009-09-22 07:08:43 51°14.936 2°54.476 337.6 11.3 331 9
2009-09-22 07:08:48 51°14.949 2°54.464 337.6 11.3 332 9.1
2009-09-22 07:08:53 51°14.963 2°54.452 338 11.3 332 9.3
2009-09-22 07:08:58 51°14.977 2°54.44 337.8 11.3 331 9.6
2009-09-22 07:09:03 51°14.99 2°54.428 337.6 11.2 332 9.6
2009-09-22 07:09:08 51°15.004 2°54.416 337.6 11.3 332 9.5
2009-09-22 07:09:13 51°15.018 2°54.404 337.3 11.4 331 9.6
2009-09-22 07:09:18 51°15.032 2°54.393 337.3 11.3 332 9.6
2009-09-22 07:09:23 51°15.046 2°54.381 337.9 11.4 332 9.6
2009-09-22 07:09:28 51°15.06 2°54.369 338.2 11.4 332 9.5
2009-09-22 07:09:33 51°15.074 2°54.358 338.3 11.4 333 9.6
2009-09-22 07:09:38 51°15.088 2°54.346 338.3 11.4 333 9.6
2009-09-22 07:09:43 51°15.102 2°54.335 338.3 11.4 332 9.5
2009-09-22 07:09:48 51°15.115 2°54.323 338.4 11.4 332 9.6
2009-09-22 07:09:54 51°15.132 2°54.309 338.1 11.4 332 9.6
2009-09-22 07:09:59 51°15.146 2°54.297 337.4 11.4 331 9.7
2009-09-22 07:10:03 51°15.157 2°54.287 337.1 11.4 331 9.7
2009-09-22 07:10:09 51°15.173 2°54.272 336.7 11.4 331 9.7
2009-09-22 07:10:14 51°15.188 2°54.261 337 11.4 333 9.9
2009-09-22 07:10:19 51°15.201 2°54.249 337.6 11.4 332 9.8
2009-09-22 07:10:23 51°15.213 2°54.24 338.1 11.4 333 9.8
2009-09-22 07:10:29 51°15.23 2°54.226 338.3 11.4 333 9.9
2009-09-22 07:10:34 51°15.244 2°54.214 338.1 11.4 333 9.8
2009-09-22 07:10:39 51°15.258 2°54.203 338.3 11.4 333 9.9
2009-09-22 07:10:43 51°15.269 2°54.194 338.5 11.4 333 9.9
2009-09-22 07:10:48 51°15.283 2°54.182 338.2 11.4 333 9.6
2009-09-22 07:10:53 51°15.297 2°54.171 338.3 11.4 333 9.5
2009-09-22 07:10:59 51°15.314 2°54.156 337.5 11.4 331 9.4
2009-09-22 07:11:04 51°15.327 2°54.145 337 11.3 332 9.1
2009-09-22 07:11:09 51°15.341 2°54.132 337 11.4 332 9
2009-09-22 07:11:14 51°15.355 2°54.121 337 11.3 332 8.8
2009-09-22 07:11:19 51°15.369 2°54.109 337.1 11.4 331 8.8
2009-09-22 07:11:24 51°15.383 2°54.097 337.1 11.4 332 8.9
2009-09-22 07:11:29 51°15.397 2°54.085 337.6 11.4 332 8.9
2009-09-22 07:11:34 51°15.411 2°54.073 337.7 11.4 332 8.8
2009-09-22 07:11:39 51°15.425 2°54.061 338 11.4 331 9
2009-09-22 07:11:44 51°15.439 2°54.05 337.7 11.3 332 8.9
2009-09-22 07:11:49 51°15.452 2°54.037 336.9 11.4 330 9.1
2009-09-22 07:11:54 51°15.466 2°54.024 336 11.4 330 9.1
2009-09-22 07:11:59 51°15.48 2°54.011 335.4 11.5 329 9.2
2009-09-22 07:12:04 51°15.493 2°53.998 334.3 11.5 328 9.2
2009-09-22 07:12:09 51°15.506 2°53.984 333.8 11.4 328 9.3
2009-09-22 07:12:14 51°15.52 2°53.97 333.7 11.5 328 9.3
2009-09-22 07:12:19 51°15.533 2°53.957 333.5 11.5 327 9.2
2009-09-22 07:12:24 51°15.546 2°53.943 333.3 11.5 327 9.4
2009-09-22 07:12:29 51°15.559 2°53.928 332.9 11.5 326 9.5
2009-09-22 07:12:34 51°15.573 2°53.914 332.5 11.5 325 9.5
2009-09-22 07:12:39 51°15.586 2°53.9 332.5 11.5 326 9.7
2009-09-22 07:12:44 51°15.599 2°53.886 332.8 11.5 326 9.7
2009-09-22 07:12:49 51°15.612 2°53.872 333.2 11.5 327 9.9
2009-09-22 07:12:54 51°15.626 2°53.858 333.3 11.4 327 9.8
2009-09-22 07:12:59 51°15.639 2°53.844 333.7 11.4 327 9.9
2009-09-22 07:13:04 51°15.652 2°53.83 333.5 11.5 326 10
2009-09-22 07:13:09 51°15.666 2°53.817 333.4 11.5 327 9.6
2009-09-22 07:13:14 51°15.679 2°53.802 333.4 11.5 327 9.9
2009-09-22 07:13:19 51°15.692 2°53.789 333.3 11.5 327 10.1
2009-09-22 07:13:24 51°15.706 2°53.775 333.7 11.5 327 10.1
2009-09-22 07:13:29 51°15.719 2°53.761 333.3 11.5 327 10.2
2009-09-22 07:13:34 51°15.732 2°53.747 333.2 11.5 326 10.2
2009-09-22 07:13:39 51°15.745 2°53.732 332.5 11.5 325 10.3
2009-09-22 07:13:44 51°15.759 2°53.718 332.1 11.5 326 10.3
2009-09-22 07:13:49 51°15.772 2°53.703 332.3 11.5 326 10.3
2009-09-22 07:13:54 51°15.785 2°53.689 332.5 11.5 326 10.3
2009-09-22 07:13:59 51°15.798 2°53.675 333.2 11.5 326 10.3
2009-09-22 07:14:04 51°15.812 2°53.661 332.8 11.6 326 10.5
2009-09-22 07:14:09 51°15.825 2°53.646 332.6 11.6 326 10.4
2009-09-22 07:14:14 51°15.838 2°53.632 332.9 11.5 327 10.5
2009-09-22 07:14:19 51°15.852 2°53.618 333.4 11.6 327 10.4
2009-09-22 07:14:24 51°15.865 2°53.604 333.6 11.6 327 10.1
2009-09-22 07:14:29 51°15.879 2°53.59 333.7 11.6 327 10.4
2009-09-22 07:14:34 51°15.892 2°53.576 333.4 11.6 327 10.4
2009-09-22 07:14:39 51°15.905 2°53.562 333.8 11.6 327 10.6
2009-09-22 07:14:44 51°15.918 2°53.548 333.6 11.6 326 10.6
2009-09-22 07:14:49 51°15.932 2°53.534 333.5 11.6 327 10.5
2009-09-22 07:14:54 51°15.945 2°53.519 333.3 11.6 326 10.6
2009-09-22 07:14:59 51°15.958 2°53.505 333.2 11.5 326 10.5
2009-09-22 07:15:04 51°15.972 2°53.491 332.8 11.6 326 10.7
2009-09-22 07:15:09 51°15.985 2°53.476 332.6 11.6 325 10.6
2009-09-22 07:15:14 51°15.998 2°53.461 332.2 11.6 325 10.7
2009-09-22 07:15:19 51°16.011 2°53.447 332 11.6 325 10.7
2009-09-22 07:15:24 51°16.024 2°53.432 332.3 11.6 325 10.7
2009-09-22 07:15:29 51°16.038 2°53.418 332.8 11.6 326 10.8
2009-09-22 07:15:34 51°16.051 2°53.404 333.3 11.6 326 10.8
2009-09-22 07:15:39 51°16.065 2°53.39 333.5 11.6 327 10.7
2009-09-22 07:15:44 51°16.078 2°53.375 333.7 11.6 326 10.7
2009-09-22 07:15:49 51°16.092 2°53.362 333.8 11.5 327 10.8
2009-09-22 07:15:54 51°16.105 2°53.347 334 11.6 325 10.9
2009-09-22 07:15:59 51°16.118 2°53.333 333.3 11.6 326 10.8
2009-09-22 07:16:04 51°16.132 2°53.319 333.5 11.6 327 10.9
2009-09-22 07:16:09 51°16.145 2°53.305 333.6 11.7 326 11
2009-09-22 07:16:14 51°16.159 2°53.29 333.3 11.6 326 10.9
2009-09-22 07:16:19 51°16.172 2°53.276 333.3 11.6 326 11
2009-09-22 07:16:24 51°16.185 2°53.262 333.6 11.6 326 11
2009-09-22 07:16:29 51°16.199 2°53.247 333.6 11.6 326 10.9
2009-09-22 07:16:34 51°16.212 2°53.233 333.3 11.6 326 11
2009-09-22 07:16:39 51°16.226 2°53.219 333.6 11.7 327 10.9
2009-09-22 07:16:44 51°16.239 2°53.205 333.9 11.7 327 10.9
2009-09-22 07:16:49 51°16.253 2°53.191 334 11.7 327 11
2009-09-22 07:16:54 51°16.266 2°53.176 333.8 11.7 327 11
2009-09-22 07:16:59 51°16.279 2°53.162 333.3 11.6 326 11
2009-09-22 07:17:04 51°16.293 2°53.148 333.3 11.6 326 10.9
2009-09-22 07:17:09 51°16.307 2°53.134 333.2 11.6 327 10.9
2009-09-22 07:17:14 51°16.32 2°53.12 333.3 11.6 327 11
2009-09-22 07:17:19 51°16.333 2°53.106 333.5 11.6 326 11
2009-09-22 07:17:24 51°16.347 2°53.092 333.5 11.6 327 11.1
2009-09-22 07:17:29 51°16.361 2°53.077 333.2 11.7 327 10.9
2009-09-22 07:17:34 51°16.374 2°53.063 333.1 11.6 326 10.9
2009-09-22 07:17:39 51°16.388 2°53.049 333.3 11.6 326 10.9
2009-09-22 07:17:44 51°16.401 2°53.034 333.2 11.6 326 10.8
2009-09-22 07:17:49 51°16.415 2°53.02 333 11.7 326 10.9
2009-09-22 07:17:54 51°16.428 2°53.006 333.2 11.7 327 10.9
2009-09-22 07:17:59 51°16.442 2°52.992 333.7 11.7 327 10.8
2009-09-22 07:18:04 51°16.455 2°52.978 334 11.7 328 10.7
2009-09-22 07:18:09 51°16.469 2°52.964 333.9 11.7 327 10.8
2009-09-22 07:18:14 51°16.483 2°52.95 333.8 11.7 328 10.8
2009-09-22 07:18:19 51°16.496 2°52.936 334 11.7 327 10.8
2009-09-22 07:18:24 51°16.51 2°52.923 333.9 11.6 328 10.7
2009-09-22 07:18:29 51°16.523 2°52.91 334.1 11.6 328 10.6
2009-09-22 07:18:34 51°16.537 2°52.896 334.1 11.6 329 10.8
2009-09-22 07:18:39 51°16.551 2°52.882 334 11.7 328 10.6
2009-09-22 07:18:44 51°16.565 2°52.869 333.9 11.7 329 10.7
2009-09-22 07:18:49 51°16.578 2°52.855 333.8 11.7 328 10.6
2009-09-22 07:18:54 51°16.592 2°52.842 333.9 11.7 329 10.6
2009-09-22 07:18:59 51°16.606 2°52.828 333.7 11.7 329 10.5
2009-09-22 07:19:04 51°16.62 2°52.815 333.9 11.7 329 10.4
2009-09-22 07:19:09 51°16.634 2°52.801 333.7 11.7 329 10.4
2009-09-22 07:19:14 51°16.647 2°52.787 333.5 11.6 328 10.2
2009-09-22 07:19:19 51°16.66 2°52.774 333.3 11.5 328 10.2
2009-09-22 07:19:24 51°16.674 2°52.76 333.2 11.6 327 10
2009-09-22 07:19:29 51°16.687 2°52.746 333.1 11.6 327 9.9
2009-09-22 07:19:34 51°16.701 2°52.732 333 11.5 327 9.8
2009-09-22 07:19:39 51°16.715 2°52.718 333.1 11.5 327 9.6
2009-09-22 07:19:44 51°16.729 2°52.704 333.2 11.5 328 9.3
2009-09-22 07:19:48 51°16.74 2°52.693 332.9 11.5 326 9
2009-09-22 07:19:54 51°16.756 2°52.677 332.3 11.5 328 8.9
2009-09-22 07:19:59 51°16.769 2°52.663 332.3 11.4 327 8.8
2009-09-22 07:20:04 51°16.782 2°52.65 331.8 11.4 327 9.1
2009-09-22 07:20:09 51°16.796 2°52.637 334 11.4 330 8.9
2009-09-22 07:20:14 51°16.81 2°52.624 334.8 11.4 330 8.8
2009-09-22 07:20:19 51°16.824 2°52.611 335.4 11.5 330 8.8
2009-09-22 07:20:24 51°16.838 2°52.599 335.8 11.4 331 8.9
2009-09-22 07:20:29 51°16.852 2°52.587 336.8 11.5 331 8.8
2009-09-22 07:20:34 51°16.866 2°52.575 337.1 11.4 332 8.8
2009-09-22 07:20:39 51°16.88 2°52.563 337.3 11.5 331 9
2009-09-22 07:20:44 51°16.894 2°52.551 337.1 11.4 332 8.8
2009-09-22 07:20:49 51°16.908 2°52.539 337.5 11.4 332 8.9
2009-09-22 07:20:54 51°16.922 2°52.528 337.7 11.4 333 9
2009-09-22 07:20:59 51°16.937 2°52.516 338.3 11.6 333 9
2009-09-22 07:21:04 51°16.951 2°52.505 338.8 11.5 334 8.7
2009-09-22 07:21:09 51°16.965 2°52.494 338.8 11.4 333 8.7
2009-09-22 07:21:14 51°16.979 2°52.483 338.8 11.3 334 8.7
2009-09-22 07:21:19 51°16.992 2°52.471 339 11.3 333 8.6
2009-09-22 07:21:24 51°17.006 2°52.46 339.2 11.3 334 8.7
2009-09-22 07:21:29 51°17.02 2°52.449 339 11.4 333 8.8
2009-09-22 07:21:34 51°17.034 2°52.437 338.8 11.3 333 8.7
2009-09-22 07:21:39 51°17.048 2°52.426 339 11.3 334 8.6
2009-09-22 07:21:44 51°17.063 2°52.415 339.2 11.4 334 8.9
2009-09-22 07:21:49 51°17.077 2°52.404 339.2 11.5 334 9
2009-09-22 07:21:54 51°17.091 2°52.393 339.3 11.5 334 9
2009-09-22 07:21:59 51°17.106 2°52.382 339.5 11.5 334 8.9
2009-09-22 07:22:04 51°17.12 2°52.371 339.5 11.5 334 9
2009-09-22 07:22:09 51°17.134 2°52.36 339 11.6 334 9
2009-09-22 07:22:14 51°17.148 2°52.349 338.9 11.5 334 9.2
2009-09-22 07:22:19 51°17.162 2°52.338 339.1 11.4 334 9.1
2009-09-22 07:22:24 51°17.177 2°52.327 339.2 11.5 335 9.4
2009-09-22 07:22:29 51°17.191 2°52.316 338.8 11.5 334 9
2009-09-22 07:22:34 51°17.205 2°52.305 339.4 11.4 335 9.4
2009-09-22 07:22:39 51°17.22 2°52.295 339.2 11.4 335 9.6
2009-09-22 07:22:44 51°17.234 2°52.283 338.7 11.5 334 9.5
2009-09-22 07:22:49 51°17.249 2°52.273 339 11.4 336 9.4
2009-09-22 07:22:54 51°17.262 2°52.262 338.8 11.3 334 9.7
2009-09-22 07:22:59 51°17.277 2°52.254 341 11.2 341 9.8
2009-09-22 07:23:04 51°17.292 2°52.246 345.5 11.2 343 10.2
2009-09-22 07:23:09 51°17.307 2°52.239 347 11.2 342 10.5
2009-09-22 07:23:14 51°17.322 2°52.234 349.6 11.1 347 10.4
2009-09-22 07:23:19 51°17.337 2°52.228 351.3 11.1 346 10.3
2009-09-22 07:23:24 51°17.352 2°52.224 353.3 11.1 350 10.4
2009-09-22 07:23:29 51°17.367 2°52.218 353.3 11.2 347 10.7
2009-09-22 07:23:34 51°17.383 2°52.215 354.7 11.1 352 10.2
2009-09-22 07:23:39 51°17.398 2°52.211 356.7 11.2 350 10.4
2009-09-22 07:23:44 51°17.413 2°52.208 357 11.1 353 10.5
2009-09-22 07:23:49 51°17.429 2°52.205 357.9 11.2 353 10.6
2009-09-22 07:23:54 51°17.444 2°52.202 358.6 11.2 353 10.3
2009-09-22 07:23:59 51°17.459 2°52.199 359.5 11.2 354 10.5
2009-09-22 07:24:04 51°17.475 2°52.197 359.5 11.1 354 10.8
2009-09-22 07:24:09 51°17.49 2°52.194 359.4 11.1 354 10.7
2009-09-22 07:24:14 51°17.505 2°52.192 359.4 11.3 354 10.3
2009-09-22 07:24:19 51°17.521 2°52.189 359.4 11.2 354 10.4
2009-09-22 07:24:24 51°17.536 2°52.187 0.1 11.2 355 10.4
2009-09-22 07:24:29 51°17.552 2°52.184 0.5 11.2 354 10.5
2009-09-22 07:24:34 51°17.567 2°52.182 0.7 11.1 356 10.3
2009-09-22 07:24:39 51°17.583 2°52.18 1.1 11.2 355 10.4
2009-09-22 07:24:44 51°17.598 2°52.179 1.7 11.1 357 10.2
2009-09-22 07:24:49 51°17.614 2°52.176 1.3 11.2 355 10.4
2009-09-22 07:24:54 51°17.629 2°52.175 1.2 11.2 355 10.1
2009-09-22 07:24:59 51°17.645 2°52.173 1.5 11.2 355 10.3
2009-09-22 07:25:04 51°17.66 2°52.171 0.9 11.2 356 10.4
2009-09-22 07:25:09 51°17.676 2°52.168 0.7 11.2 355 10.1
2009-09-22 07:25:14 51°17.691 2°52.166 0.7 11.3 354 10.2
2009-09-22 07:25:19 51°17.707 2°52.164 0.1 11.1 355 10.3
2009-09-22 07:25:24 51°17.723 2°52.161 0.8 11.2 355 10.3
2009-09-22 07:25:29 51°17.738 2°52.159 1.2 11.2 355 9.9
2009-09-22 07:25:34 51°17.754 2°52.157 0.3 11.2 355 9.7
2009-09-22 07:25:39 51°17.769 2°52.154 0.1 11.2 353 9.9
2009-09-22 07:25:44 51°17.784 2°52.152 0.1 11.1 356 10
2009-09-22 07:25:48 51°17.796 2°52.15 0.4 11 355 9.8
2009-09-22 07:25:54 51°17.815 2°52.148 0.8 11.3 355 10.1
2009-09-22 07:25:59 51°17.831 2°52.145 0.5 11.2 355 10.1
2009-09-22 07:26:04 51°17.846 2°52.142 359.7 11 353 10.1
2009-09-22 07:26:09 51°17.861 2°52.139 359.9 11.1 353 10.6
2009-09-22 07:26:14 51°17.877 2°52.138 0.1 11.1 355 10.2
2009-09-22 07:26:19 51°17.892 2°52.134 359.3 11.2 353 10.3
2009-09-22 07:26:24 51°17.908 2°52.131 359.6 11.2 353 10.6
2009-09-22 07:26:29 51°17.923 2°52.129 359.1 11.1 355 10.1
2009-09-22 07:26:34 51°17.938 2°52.126 359.3 11.2 353 10.4
2009-09-22 07:26:39 51°17.954 2°52.123 359.4 11.2 353 10.3
2009-09-22 07:26:44 51°17.969 2°52.12 358.8 11.2 353 10.3
2009-09-22 07:26:49 51°17.984 2°52.117 358.7 11.1 353 10.4
2009-09-22 07:26:54 51°18 2°52.114 359.4 11.1 353 10.2
2009-09-22 07:26:59 51°18.015 2°52.111 359.1 11.3 353 10.3
2009-09-22 07:27:04 51°18.03 2°52.107 357.8 11.2 352 10.5
2009-09-22 07:27:09 51°18.045 2°52.104 358 11.1 352 10.2
2009-09-22 07:27:14 51°18.061 2°52.1 357.5 11.1 351 10.3
2009-09-22 07:27:19 51°18.076 2°52.097 358 11.2 353 10.3
2009-09-22 07:27:24 51°18.092 2°52.094 358 11.2 352 10.2
2009-09-22 07:27:29 51°18.107 2°52.091 358.5 11.1 353 10.5
2009-09-22 07:27:34 51°18.123 2°52.088 358.9 11.2 353 10.3
2009-09-22 07:27:39 51°18.138 2°52.084 358.9 11.3 353 10.5
2009-09-22 07:27:44 51°18.153 2°52.081 358.7 11.2 353 10.5
2009-09-22 07:27:49 51°18.169 2°52.079 358.8 11.2 354 10.3
2009-09-22 07:27:54 51°18.184 2°52.075 359.1 11.1 352 10.3
2009-09-22 07:27:59 51°18.199 2°52.073 359.5 11 355 10.3
2009-09-22 07:28:04 51°18.215 2°52.07 359.9 11.2 353 10.3
2009-09-22 07:28:09 51°18.23 2°52.067 359.1 11.1 353 9.8
2009-09-22 07:28:14 51°18.245 2°52.064 359.1 11.1 353 10
2009-09-22 07:28:19 51°18.26 2°52.062 359.6 11.1 353 10.1
2009-09-22 07:28:24 51°18.276 2°52.059 359.5 11.1 355 10.6
2009-09-22 07:28:29 51°18.291 2°52.055 359.3 11.2 352 10.5
2009-09-22 07:28:34 51°18.307 2°52.053 359.9 11.1 354 10.3
2009-09-22 07:28:39 51°18.322 2°52.05 359.4 11.2 352 10.4
2009-09-22 07:28:44 51°18.338 2°52.046 359.4 11.3 353 10.7
2009-09-22 07:28:49 51°18.353 2°52.043 358.6 11.3 352 10.5
2009-09-22 07:28:54 51°18.369 2°52.04 358.8 11.3 352 10.3
2009-09-22 07:28:59 51°18.384 2°52.037 358.9 11.2 353 10.3
2009-09-22 07:29:04 51°18.399 2°52.034 358.9 11.3 353 10.1
2009-09-22 07:29:09 51°18.415 2°52.031 359 11.3 353 10.7
2009-09-22 07:29:14 51°18.43 2°52.027 358.6 11.3 352 10.9
2009-09-22 07:29:19 51°18.446 2°52.023 358.6 11.2 352 10.4
2009-09-22 07:29:24 51°18.461 2°52.02 358.5 11.3 352 10.6
2009-09-22 07:29:29 51°18.476 2°52.016 358.3 11.3 351 10.5
2009-09-22 07:29:34 51°18.492 2°52.013 357.2 11.2 351 10.6
2009-09-22 07:29:39 51°18.507 2°52.009 357.9 11.2 352 10.9
2009-09-22 07:29:44 51°18.523 2°52.005 358.4 11.3 351 11.1
2009-09-22 07:29:49 51°18.538 2°52.002 358 11.3 352 10.7
2009-09-22 07:29:54 51°18.553 2°51.997 357.5 11.3 350 10.9
2009-09-22 07:29:59 51°18.568 2°51.994 357 11.3 352 11.2
2009-09-22 07:30:04 51°18.584 2°51.99 357.5 11.3 351 11.3
2009-09-22 07:30:09 51°18.6 2°51.987 357.9 11.3 352 11.2
2009-09-22 07:30:14 51°18.615 2°51.983 357.9 11.3 352 11.4
2009-09-22 07:30:19 51°18.631 2°51.979 357.4 11.3 351 11.5
2009-09-22 07:30:24 51°18.646 2°51.976 357.9 11.3 352 11.7
2009-09-22 07:30:28 51°18.659 2°51.973 358.4 11.3 352 11.6
2009-09-22 07:30:34 51°18.677 2°51.969 358.6 11.3 351 11.7
2009-09-22 07:30:39 51°18.693 2°51.965 358 11.2 351 11.9
2009-09-22 07:30:44 51°18.708 2°51.96 357.1 11.2 350 11.9
2009-09-22 07:30:49 51°18.724 2°51.957 357.5 11.3 351 12.1
2009-09-22 07:30:54 51°18.739 2°51.953 357 11.3 351 12.1
2009-09-22 07:30:59 51°18.755 2°51.95 357.5 11.3 351 12.1
2009-09-22 07:31:04 51°18.77 2°51.945 357.2 11.3 350 12
2009-09-22 07:31:09 51°18.786 2°51.942 356.8 11.3 352 12.3
2009-09-22 07:31:14 51°18.801 2°51.937 356.6 11.3 351 12.3
2009-09-22 07:31:19 51°18.816 2°51.934 357.1 11.2 352 12.7
2009-09-22 07:31:24 51°18.832 2°51.93 357.1 11.2 350 12.3
2009-09-22 07:31:29 51°18.847 2°51.926 356.9 11.2 351 12.4
2009-09-22 07:31:34 51°18.862 2°51.923 357.2 11.2 352 12.4
2009-09-22 07:31:39 51°18.878 2°51.919 357.9 11.1 351 12.7
2009-09-22 07:31:44 51°18.893 2°51.915 358.8 11.1 352 12.7
2009-09-22 07:31:49 51°18.908 2°51.911 358.3 11.1 351 12.8
2009-09-22 07:31:54 51°18.924 2°51.908 357.7 11.1 351 12.8
2009-09-22 07:31:59 51°18.939 2°51.904 358.5 11.1 352 13
2009-09-22 07:32:04 51°18.954 2°51.9 358.6 11.2 352 12.9
2009-09-22 07:32:09 51°18.969 2°51.897 358.5 11.2 352 13.3
2009-09-22 07:32:14 51°18.985 2°51.894 358.9 11.2 353 13.4
2009-09-22 07:32:19 51°19 2°51.89 359 11.2 352 13.2
2009-09-22 07:32:24 51°19.016 2°51.886 358.8 11.2 352 13.4
2009-09-22 07:32:29 51°19.031 2°51.882 358.1 11.2 351 13.6
2009-09-22 07:32:34 51°19.047 2°51.879 358.4 11.2 352 13.4
2009-09-22 07:32:39 51°19.062 2°51.876 358.5 11.2 352 13.6
2009-09-22 07:32:44 51°19.077 2°51.872 358.6 11.2 352 13.8
2009-09-22 07:32:49 51°19.093 2°51.869 358.7 11.2 353 13.4
2009-09-22 07:32:54 51°19.108 2°51.865 358.7 11.2 350 13.6
2009-09-22 07:32:59 51°19.123 2°51.861 357.8 11.2 352 13.7
2009-09-22 07:33:04 51°19.139 2°51.858 358 11.2 352 13.8
2009-09-22 07:33:09 51°19.154 2°51.855 358.6 11.3 352 13.8
2009-09-22 07:33:14 51°19.169 2°51.851 358.6 11.1 352 13.5
2009-09-22 07:33:19 51°19.184 2°51.848 359 11.1 352 13.3
2009-09-22 07:33:24 51°19.2 2°51.844 358.6 11.1 351 14.3
2009-09-22 07:33:29 51°19.215 2°51.841 359 11.1 352 14.2
2009-09-22 07:33:34 51°19.23 2°51.837 357.6 11.1 351 13.8
2009-09-22 07:33:39 51°19.246 2°51.834 358.2 11.1 353 14.4
2009-09-22 07:33:44 51°19.261 2°51.829 358.5 11.1 350 14.2
2009-09-22 07:33:49 51°19.276 2°51.826 358.1 11.1 352 14
2009-09-22 07:33:54 51°19.291 2°51.822 358.1 11.1 351 14.6
2009-09-22 07:33:59 51°19.306 2°51.819 358.4 11.1 352 14.3
2009-09-22 07:34:04 51°19.322 2°51.816 358.6 11.1 354 14.5
2009-09-22 07:34:09 51°19.337 2°51.811 358.8 11.1 350 14.1
2009-09-22 07:34:14 51°19.352 2°51.809 358.2 11.1 352 14.2
2009-09-22 07:34:19 51°19.368 2°51.804 358.9 11.2 351 14.6
2009-09-22 07:34:24 51°19.383 2°51.801 358.6 11.2 352 14.3
2009-09-22 07:34:29 51°19.398 2°51.798 358.7 11.1 351 14.5
2009-09-22 07:34:34 51°19.414 2°51.795 358.6 11 353 14.9
2009-09-22 07:34:39 51°19.429 2°51.791 359.3 11.1 351 14.6
2009-09-22 07:34:44 51°19.444 2°51.788 358.8 11.1 353 14.2
2009-09-22 07:34:49 51°19.459 2°51.784 359.6 11.1 352 14.7
2009-09-22 07:34:54 51°19.474 2°51.781 359.4 11 353 14.5
2009-09-22 07:34:59 51°19.49 2°51.778 359.3 11.1 353 14.6
2009-09-22 07:35:04 51°19.505 2°51.774 359.4 11.1 352 14.8
2009-09-22 07:35:09 51°19.52 2°51.77 358.6 11.1 351 14.6
2009-09-22 07:35:14 51°19.536 2°51.767 358.6 11.1 352 14.7
2009-09-22 07:35:19 51°19.551 2°51.763 358.9 11.2 351 14.7
2009-09-22 07:35:24 51°19.566 2°51.759 358.2 11.3 351 14.7
2009-09-22 07:35:29 51°19.581 2°51.756 357.5 11.2 351 14.7
2009-09-22 07:35:34 51°19.597 2°51.752 358 11.2 352 14.5
2009-09-22 07:35:39 51°19.612 2°51.748 358.5 11.2 351 14.7
2009-09-22 07:35:44 51°19.627 2°51.744 358.4 11.2 353 14.5
2009-09-22 07:35:48 51°19.64 2°51.742 359.4 11.2 353 14.9
2009-09-22 07:35:54 51°19.658 2°51.739 0.3 11.1 354 14.6
2009-09-22 07:35:59 51°19.673 2°51.735 0.2 11.2 351 14.7
2009-09-22 07:36:04 51°19.688 2°51.732 359.7 11.1 354 14.7
2009-09-22 07:36:09 51°19.704 2°51.729 1.2 11.2 352 14.7
2009-09-22 07:36:14 51°19.719 2°51.727 0.8 11 356 14.4
2009-09-22 07:36:19 51°19.734 2°51.724 1.2 11.2 352 14.5
2009-09-22 07:36:24 51°19.75 2°51.722 0.8 11.1 354 14.1
2009-09-22 07:36:29 51°19.765 2°51.72 1.3 11.1 355 14.5
2009-09-22 07:36:34 51°19.781 2°51.717 1.4 11.2 355 14.2
2009-09-22 07:36:39 51°19.796 2°51.714 1.5 11.2 353 14.2
2009-09-22 07:36:44 51°19.812 2°51.713 1.5 11.1 355 13.6
2009-09-22 07:36:49 51°19.827 2°51.711 2.2 11.2 355 14.2
2009-09-22 07:36:54 51°19.843 2°51.709 2.7 11.1 356 14
2009-09-22 07:36:59 51°19.858 2°51.707 2.3 11.2 355 13.8
2009-09-22 07:37:04 51°19.874 2°51.705 1.4 11.2 354 14.1
2009-09-22 07:37:09 51°19.889 2°51.703 2.5 11.2 356 13.7
2009-09-22 07:37:14 51°19.905 2°51.701 1.2 11.2 355 13.9
2009-09-22 07:37:19 51°19.92 2°51.699 1.6 11.2 355 13.8
2009-09-22 07:37:24 51°19.935 2°51.696 1.3 11.2 354 13.7
2009-09-22 07:37:29 51°19.951 2°51.694 1.1 11.2 354 13.6
2009-09-22 07:37:34 51°19.966 2°51.692 1.5 11.2 356 13.4
2009-09-22 07:37:39 51°19.982 2°51.688 1 11.2 352 13.3
2009-09-22 07:37:44 51°19.998 2°51.687 1.3 11.2 356 13.3
2009-09-22 07:37:49 51°20.013 2°51.684 0.9 11.3 353 13.7
2009-09-22 07:37:54 51°20.028 2°51.682 1.5 11.1 355 13.1
2009-09-22 07:37:59 51°20.044 2°51.679 1.4 11.2 353 13.1
2009-09-22 07:38:04 51°20.059 2°51.676 0.8 11.2 353 12.9
2009-09-22 07:38:09 51°20.074 2°51.673 0.8 11.2 354 12.6
2009-09-22 07:38:14 51°20.09 2°51.671 1.3 11.2 355 12.6
2009-09-22 07:38:19 51°20.105 2°51.668 1.5 11.3 354 12.2
2009-09-22 07:38:24 51°20.121 2°51.666 1.3 11.2 356 11.3
2009-09-22 07:38:29 51°20.136 2°51.663 2 11.3 354 11.3
2009-09-22 07:38:34 51°20.152 2°51.662 1.6 11.2 356 11.5
2009-09-22 07:38:39 51°20.167 2°51.659 1.3 11.1 355 11.7
2009-09-22 07:38:44 51°20.183 2°51.657 2.5 11.2 356 12
2009-09-22 07:38:49 51°20.198 2°51.655 2.3 11.2 355 12
2009-09-22 07:38:54 51°20.214 2°51.653 1.4 11.2 356 12.4
2009-09-22 07:38:59 51°20.229 2°51.651 1.3 11.2 355 12.1
2009-09-22 07:39:04 51°20.244 2°51.649 1.9 11.1 355 11.6
2009-09-22 07:39:09 51°20.26 2°51.647 2.4 11.2 355 11.8
2009-09-22 07:39:14 51°20.275 2°51.644 1.7 11.2 354 11.8
2009-09-22 07:39:19 51°20.29 2°51.642 1.5 11 354 11.6
2009-09-22 07:39:24 51°20.306 2°51.64 1.5 11 355 12.1
2009-09-22 07:39:29 51°20.321 2°51.637 1.5 11.2 354 12.3
2009-09-22 07:39:34 51°20.337 2°51.635 1.2 11.2 355 12.3
2009-09-22 07:39:39 51°20.352 2°51.633 1.5 11.3 355 12.4
2009-09-22 07:39:44 51°20.368 2°51.631 1.5 11.3 355 12.3
2009-09-22 07:39:49 51°20.384 2°51.629 1.5 11.3 356 12.3
2009-09-22 07:39:54 51°20.4 2°51.627 1.9 11.4 355 12.6
2009-09-22 07:39:59 51°20.415 2°51.625 1.9 11.4 356 12.5
2009-09-22 07:40:04 51°20.431 2°51.623 2 11.4 354 12.8
2009-09-22 07:40:09 51°20.447 2°51.621 1.8 11.4 356 12.6
2009-09-22 07:40:14 51°20.463 2°51.619 2.1 11.5 355 12.8
2009-09-22 07:40:19 51°20.479 2°51.617 1.9 11.4 355 13.2
2009-09-22 07:40:24 51°20.494 2°51.615 1.5 11.4 355 13.4
2009-09-22 07:40:29 51°20.51 2°51.612 1.3 11.3 355 12.9
2009-09-22 07:40:34 51°20.526 2°51.611 1.3 11.3 357 13.7
2009-09-22 07:40:39 51°20.541 2°51.608 1.6 11.2 354 14
2009-09-22 07:40:44 51°20.557 2°51.606 1.1 11.3 355 13.5
2009-09-22 07:40:49 51°20.572 2°51.604 1.2 11.3 354 13.7
2009-09-22 07:40:54 51°20.588 2°51.601 0.1 11.3 354 14.1
2009-09-22 07:40:59 51°20.604 2°51.599 0.6 11.3 356 14.4
2009-09-22 07:41:04 51°20.619 2°51.597 1.6 11.3 355 14.2
2009-09-22 07:41:09 51°20.635 2°51.594 1 11.3 354 14
2009-09-22 07:41:14 51°20.651 2°51.592 0.9 11.4 356 13.9
2009-09-22 07:41:19 51°20.666 2°51.59 0.9 11.3 355 13.3
2009-09-22 07:41:24 51°20.682 2°51.588 1.7 11.3 356 13.5
2009-09-22 07:41:29 51°20.698 2°51.587 1.6 11.4 355 13.6
2009-09-22 07:41:34 51°20.713 2°51.584 1.1 11.3 355 13.6
2009-09-22 07:41:39 51°20.729 2°51.583 1.4 11.3 355 13.7
2009-09-22 07:41:44 51°20.744 2°51.58 0.9 11.2 355 14
2009-09-22 07:41:49 51°20.76 2°51.578 1.3 11.2 355 13.8
2009-09-22 07:41:54 51°20.775 2°51.576 1.5 11.3 355 14.2
2009-09-22 07:41:59 51°20.791 2°51.574 1.4 11.2 355 14.3
2009-09-22 07:42:04 51°20.806 2°51.573 1.6 11.2 356 14.7
2009-09-22 07:42:09 51°20.822 2°51.571 1.5 11.2 355 14.7
2009-09-22 07:42:14 51°20.838 2°51.569 1.6 11.2 355 14.6
2009-09-22 07:42:19 51°20.853 2°51.567 1.4 11.2 357 15.2
2009-09-22 07:42:24 51°20.869 2°51.565 2.1 11.3 356 15.6
2009-09-22 07:42:29 51°20.884 2°51.562 1.1 11.2 354 15.6
2009-09-22 07:42:34 51°20.9 2°51.561 1.5 11.2 357 15.6
2009-09-22 07:42:39 51°20.915 2°51.559 1.2 11.2 355 16.2
2009-09-22 07:42:44 51°20.931 2°51.557 1.2 11.2 356 15.9
2009-09-22 07:42:49 51°20.946 2°51.555 1 11.2 354 16.2
2009-09-22 07:42:54 51°20.961 2°51.553 1.2 11.1 356 16.4
2009-09-22 07:42:59 51°20.977 2°51.551 1.5 11.2 355 16.6
2009-09-22 07:43:04 51°20.992 2°51.549 0.6 11.1 354 16.6
2009-09-22 07:43:09 51°21.007 2°51.547 0.8 11.1 355 17
2009-09-22 07:43:14 51°21.023 2°51.544 0.8 11.3 354 17.1
2009-09-22 07:43:19 51°21.038 2°51.543 0.9 11.1 357 17.3
2009-09-22 07:43:24 51°21.053 2°51.541 1.2 11 356 17.8
2009-09-22 07:43:29 51°21.069 2°51.539 1.2 11 355 17.3
2009-09-22 07:43:34 51°21.084 2°51.537 1 11 356 17.5
2009-09-22 07:43:39 51°21.099 2°51.536 1.2 11 357 18
2009-09-22 07:43:44 51°21.114 2°51.533 1.6 11.1 355 18
2009-09-22 07:43:48 51°21.126 2°51.532 1.9 10.9 356 18.3
2009-09-22 07:43:54 51°21.145 2°51.529 1.2 10.9 355 18.6
2009-09-22 07:43:59 51°21.16 2°51.528 2.4 11 357 18.8
2009-09-22 07:44:04 51°21.175 2°51.525 1.3 11.1 354 19.1
2009-09-22 07:44:09 51°21.19 2°51.524 1.5 10.9 357 19.2
2009-09-22 07:44:14 51°21.205 2°51.521 1.3 10.9 354 19.4
2009-09-22 07:44:19 51°21.22 2°51.52 1 10.9 356 20
2009-09-22 07:44:24 51°21.235 2°51.517 1.2 10.9 355 19.8
2009-09-22 07:44:29 51°21.25 2°51.515 1.3 10.9 354 20.2
2009-09-22 07:44:34 51°21.266 2°51.513 1.2 10.9 356 20.4
2009-09-22 07:44:39 51°21.281 2°51.511 0.9 10.9 355 20.4
2009-09-22 07:44:44 51°21.296 2°51.509 0.8 10.9 356 20.4
2009-09-22 07:44:49 51°21.311 2°51.507 0.9 10.9 355 20.3
2009-09-22 07:44:54 51°21.326 2°51.505 0.6 10.8 355 20.5
2009-09-22 07:44:59 51°21.341 2°51.503 0.9 11 355 20.8
2009-09-22 07:45:04 51°21.356 2°51.5 0.8 10.9 355 21
2009-09-22 07:45:09 51°21.371 2°51.498 0.7 10.8 354 21
2009-09-22 07:45:14 51°21.386 2°51.495 1.5 10.9 354 21.4
2009-09-22 07:45:19 51°21.401 2°51.493 0.8 10.9 356 21.4
2009-09-22 07:45:24 51°21.416 2°51.491 1 10.8 356 21.8
2009-09-22 07:45:29 51°21.431 2°51.488 0.4 10.9 354 21.5
2009-09-22 07:45:34 51°21.446 2°51.487 1.7 10.9 357 21.8
2009-09-22 07:45:39 51°21.461 2°51.484 1 10.9 354 21.9
2009-09-22 07:45:44 51°21.476 2°51.483 1.4 10.9 357 22.2
2009-09-22 07:45:49 51°21.491 2°51.479 0.4 11 352 21.9
2009-09-22 07:45:54 51°21.506 2°51.478 0.1 10.9 355 22.1
2009-09-22 07:45:59 51°21.521 2°51.475 0.9 11 354 22.6
2009-09-22 07:46:04 51°21.536 2°51.473 1 11 355 22.6
2009-09-22 07:46:09 51°21.552 2°51.47 0.8 11 354 22.3
2009-09-22 07:46:14 51°21.567 2°51.469 0.5 10.9 354 21.5
2009-09-22 07:46:19 51°21.582 2°51.466 0.1 10.9 355 22.3
2009-09-22 07:46:24 51°21.597 2°51.464 1.4 11 355 22.7
2009-09-22 07:46:29 51°21.612 2°51.461 1.1 11 354 22.4
2009-09-22 07:46:34 51°21.627 2°51.459 1 11 356 22.5
2009-09-22 07:46:39 51°21.643 2°51.457 1.3 11.1 355 22.4
2009-09-22 07:46:44 51°21.658 2°51.455 1.5 11 355 22.7
2009-09-22 07:46:48 51°21.67 2°51.453 1.4 11.1 354 22.7
2009-09-22 07:46:54 51°21.688 2°51.451 1.5 11.1 356 22.7
2009-09-22 07:46:59 51°21.704 2°51.449 1.6 11.1 354 22.4
2009-09-22 07:47:04 51°21.719 2°51.447 0.8 11.1 355 22.5
2009-09-22 07:47:09 51°21.734 2°51.446 1.8 11 356 22.4
2009-09-22 07:47:14 51°21.75 2°51.443 1 11 355 22.6
2009-09-22 07:47:19 51°21.765 2°51.442 1.6 11 356 23.1
2009-09-22 07:47:24 51°21.78 2°51.44 1.6 11 356 23
2009-09-22 07:47:29 51°21.795 2°51.437 0.8 11.1 355 23
2009-09-22 07:47:34 51°21.81 2°51.435 0.6 11 355 22.7
2009-09-22 07:47:39 51°21.826 2°51.434 1.5 11 356 22.8
2009-09-22 07:47:44 51°21.841 2°51.431 1.2 11 354 22.9
2009-09-22 07:47:49 51°21.856 2°51.43 0.7 11 356 23.3
2009-09-22 07:47:54 51°21.871 2°51.428 1.5 11 357 23.1
2009-09-22 07:47:59 51°21.887 2°51.425 0.9 11 354 22.6
2009-09-22 07:48:04 51°21.902 2°51.423 0.9 11 355 22.6
2009-09-22 07:48:09 51°21.917 2°51.42 1.3 11.1 354 22.4
2009-09-22 07:48:14 51°21.932 2°51.418 0.7 11 356 22.5
2009-09-22 07:48:19 51°21.947 2°51.416 2.5 11.1 355 23
2009-09-22 07:48:24 51°21.963 2°51.413 1.6 11.1 354 22.6
2009-09-22 07:48:29 51°21.978 2°51.412 1.6 11.1 357 22.7
2009-09-22 07:48:34 51°21.993 2°51.41 1.6 11.1 355 22.5
2009-09-22 07:48:39 51°22.009 2°51.408 1.5 11.1 355 22.6
2009-09-22 07:48:44 51°22.024 2°51.406 1.8 11.1 356 22.8
2009-09-22 07:48:49 51°22.04 2°51.404 0.9 11.1 355 22.3
2009-09-22 07:48:54 51°22.055 2°51.401 0.9 11.1 354 22.4
2009-09-22 07:48:59 51°22.071 2°51.399 1.1 11.1 355 22.1
2009-09-22 07:49:04 51°22.086 2°51.396 0.8 11.1 354 22
2009-09-22 07:49:09 51°22.101 2°51.394 1.5 11.2 356 22
2009-09-22 07:49:14 51°22.117 2°51.392 1.5 11.2 356 21.7
2009-09-22 07:49:19 51°22.133 2°51.391 1.7 11.3 357 22.2
2009-09-22 07:49:24 51°22.148 2°51.389 1.7 11.2 357 22
2009-09-22 07:49:29 51°22.163 2°51.386 1.8 11.1 355 21.8
2009-09-22 07:49:34 51°22.179 2°51.384 1.5 11.2 355 21.4
2009-09-22 07:49:39 51°22.194 2°51.382 1.4 11.2 354 21.3
2009-09-22 07:49:44 51°22.209 2°51.381 1.3 11.2 356 21.7
2009-09-22 07:49:49 51°22.225 2°51.378 1.7 11.2 354 21.9
2009-09-22 07:49:54 51°22.241 2°51.377 1.2 11.2 355 21.9
2009-09-22 07:49:59 51°22.256 2°51.374 0.9 11.3 355 21.9
2009-09-22 07:50:04 51°22.272 2°51.372 0.9 11.3 354 21.9
2009-09-22 07:50:09 51°22.288 2°51.371 1.5 11.3 357 22
2009-09-22 07:50:14 51°22.303 2°51.37 2.3 11.2 357 21.9
2009-09-22 07:50:19 51°22.319 2°51.367 2.1 11.3 354 22.1
2009-09-22 07:50:24 51°22.334 2°51.365 0.8 11.2 355 21.9
2009-09-22 07:50:29 51°22.35 2°51.364 0.9 11.2 355 22.1
2009-09-22 07:50:34 51°22.365 2°51.361 0.8 11.2 354 21.6
2009-09-22 07:50:39 51°22.38 2°51.36 1.4 11.2 357 21.8
2009-09-22 07:50:44 51°22.396 2°51.359 1.5 11.1 357 22.4
2009-09-22 07:50:49 51°22.411 2°51.357 1.1 11.1 356 22
2009-09-22 07:50:54 51°22.426 2°51.356 1.5 11.1 356 22.2
2009-09-22 07:50:59 51°22.442 2°51.353 1.1 11.2 355 21.8
2009-09-22 07:51:04 51°22.457 2°51.352 1.8 11.2 357 21.4
2009-09-22 07:51:08 51°22.47 2°51.351 2.3 11.3 357 21.5
2009-09-22 07:51:14 51°22.488 2°51.348 2.1 11.2 354 21.4
2009-09-22 07:51:19 51°22.504 2°51.348 2.8 11.3 358 21.3
2009-09-22 07:51:24 51°22.519 2°51.346 1.5 11.2 357 21.8
2009-09-22 07:51:29 51°22.535 2°51.344 0.1 11.3 356 21.4
2009-09-22 07:51:34 51°22.551 2°51.342 2.2 11.2 356 21.1
2009-09-22 07:51:39 51°22.566 2°51.341 2.3 11.3 356 21.4
2009-09-22 07:51:44 51°22.582 2°51.338 0.3 11.2 353 21.3
2009-09-22 07:51:48 51°22.594 2°51.336 0.3 11.1 356 21.4
2009-09-22 07:51:54 51°22.613 2°51.334 1.8 11.2 353 21.3
2009-09-22 07:51:59 51°22.628 2°51.333 359.9 11.3 355 22
2009-09-22 07:52:04 51°22.644 2°51.33 359.9 11.1 355 21.9
2009-09-22 07:52:09 51°22.659 2°51.328 1.3 11.1 355 21.4
2009-09-22 07:52:14 51°22.674 2°51.324 0.4 11.2 352 21.5
2009-09-22 07:52:19 51°22.689 2°51.324 0.5 11.1 357 21.4
2009-09-22 07:52:24 51°22.705 2°51.319 359.9 11.2 351 21.5
2009-09-22 07:52:29 51°22.72 2°51.319 0.1 10.9 359 21.6
2009-09-22 07:52:34 51°22.735 2°51.315 0.3 11.1 351 21.4
2009-09-22 07:52:39 51°22.75 2°51.313 359.4 11 356 21.3
2009-09-22 07:52:44 51°22.766 2°51.311 0.8 11.1 356 21.7
2009-09-22 07:52:48 51°22.778 2°51.309 0.5 11.1 354 21.2
2009-09-22 07:52:54 51°22.796 2°51.306 359.9 11.2 355 21.3
2009-09-22 07:52:59 51°22.812 2°51.303 0.6 11.1 354 20.6
2009-09-22 07:53:04 51°22.827 2°51.303 1.5 11.1 356 20.7
2009-09-22 07:53:09 51°22.842 2°51.3 0.8 11 355 21.2
2009-09-22 07:53:14 51°22.858 2°51.299 1.7 11.1 356 21
2009-09-22 07:53:19 51°22.873 2°51.296 1.8 11.2 353 20.6
2009-09-22 07:53:24 51°22.889 2°51.295 1.4 11.1 357 20.5
2009-09-22 07:53:29 51°22.904 2°51.293 2 11.2 355 20.2
2009-09-22 07:53:34 51°22.92 2°51.29 0.6 11.1 355 19.6
2009-09-22 07:53:39 51°22.935 2°51.289 2.3 11.2 358 19.1
2009-09-22 07:53:44 51°22.95 2°51.285 1.3 11.2 351 18.1
2009-09-22 07:53:48 51°22.963 2°51.286 0.7 11.1 359 20.6
2009-09-22 07:53:54 51°22.981 2°51.281 0.6 11.1 353 20.2
2009-09-22 07:53:59 51°22.996 2°51.282 2.4 11.1 358 19.8
2009-09-22 07:54:04 51°23.012 2°51.278 1.5 11.1 353 19.4
2009-09-22 07:54:09 51°23.027 2°51.278 1.6 11.1 358 18.8
2009-09-22 07:54:14 51°23.043 2°51.275 1.9 11.2 354 17.4
2009-09-22 07:54:19 51°23.058 2°51.274 1.8 11.1 358 15.9
2009-09-22 07:54:24 51°23.073 2°51.271 0.8 11.2 353 14.5
2009-09-22 07:54:28 51°23.086 2°51.271 2 11 359 14
2009-09-22 07:54:34 51°23.104 2°51.269 2.3 11 355 15.1
2009-09-22 07:54:39 51°23.119 2°51.268 1.7 11 359 14.4
2009-09-22 07:54:44 51°23.134 2°51.267 2.1 11.1 358 13.8
2009-09-22 07:54:49 51°23.149 2°51.265 2.5 11 356 14.3
2009-09-22 07:54:54 51°23.165 2°51.264 1.1 11 358 14.1
2009-09-22 07:54:59 51°23.18 2°51.262 1.9 11 354 11.9
2009-09-22 07:55:04 51°23.195 2°51.26 0.8 10.9 355 13.3
2009-09-22 07:55:09 51°23.211 2°51.26 1.5 11 357 14
2009-09-22 07:55:14 51°23.226 2°51.257 1.5 11.1 355 13.9
2009-09-22 07:55:19 51°23.241 2°51.256 2 11.2 357 13.2
2009-09-22 07:55:24 51°23.257 2°51.255 1.8 11.1 358 13.3
2009-09-22 07:55:28 51°23.269 2°51.253 0.8 11.1 357 13.8
2009-09-22 07:55:34 51°23.288 2°51.252 2.5 11.2 357 13.3
2009-09-22 07:55:39 51°23.303 2°51.251 1.8 11.2 356 12.8
2009-09-22 07:55:44 51°23.318 2°51.25 1.3 11.1 359 11.8
2009-09-22 07:55:49 51°23.333 2°51.247 1.9 11.1 353 13
2009-09-22 07:55:54 51°23.349 2°51.246 0.4 10.9 358 13.9
2009-09-22 07:55:59 51°23.364 2°51.245 1.6 11 356 14.2
2009-09-22 07:56:04 51°23.379 2°51.243 2.2 11.1 357 14.6
2009-09-22 07:56:09 51°23.395 2°51.241 0.9 11.1 356 14.4
2009-09-22 07:56:14 51°23.411 2°51.24 1.5 11.2 357 13.9
2009-09-22 07:56:19 51°23.426 2°51.238 1.5 11.3 356 14.5
2009-09-22 07:56:24 51°23.441 2°51.237 1.5 11.2 357 14.3
2009-09-22 07:56:28 51°23.454 2°51.235 0.9 11.1 356 13.9
2009-09-22 07:56:34 51°23.472 2°51.233 1 11 356 14.2
2009-09-22 07:56:39 51°23.487 2°51.232 2.3 11.1 357 15.4
2009-09-22 07:56:44 51°23.503 2°51.229 0.5 11.1 353 15.3
2009-09-22 07:56:49 51°23.518 2°51.229 1.4 11.1 359 14.7
2009-09-22 07:56:54 51°23.533 2°51.227 0.4 11.1 356 14.7
2009-09-22 07:56:59 51°23.549 2°51.225 1.6 11.1 357 15.5
2009-09-22 07:57:04 51°23.564 2°51.224 2.3 11.2 357 15.2
2009-09-22 07:57:09 51°23.58 2°51.223 1.7 11.2 357 15.6
2009-09-22 07:57:14 51°23.595 2°51.221 1.8 11.1 357 15.3
2009-09-22 07:57:19 51°23.61 2°51.219 2.4 11.1 354 15.2
2009-09-22 07:57:24 51°23.626 2°51.218 1.8 11.1 357 15.7
2009-09-22 07:57:29 51°23.641 2°51.216 2.1 11.1 355 15.4
2009-09-22 07:57:34 51°23.657 2°51.216 1.5 11.3 359 15.3
2009-09-22 07:57:39 51°23.672 2°51.213 1.4 11.2 352 14.7
2009-09-22 07:57:44 51°23.687 2°51.212 1.4 11.1 358 15.8
2009-09-22 07:57:49 51°23.703 2°51.207 -999 11.2 349 16.4
2009-09-22 07:57:54 51°23.717 2°51.208 359.6 10.9 1 17
2009-09-22 07:57:59 51°23.733 2°51.204 359.9 11 351 17.1
2009-09-22 07:58:04 51°23.748 2°51.203 0.1 10.9 357 17.2
2009-09-22 07:58:09 51°23.763 2°51.2 -999 10.9 354 17
2009-09-22 07:58:14 51°23.778 2°51.199 -999 10.9 356 17.4
2009-09-22 07:58:19 51°23.793 2°51.196 1.2 11 353 17.4
2009-09-22 07:58:24 51°23.808 2°51.195 0.5 10.9 356 17.8
2009-09-22 07:58:28 51°23.82 2°51.193 0.3 11 356 18.2
2009-09-22 07:58:34 51°23.838 2°51.191 1.6 11 356 17.3
2009-09-22 07:58:39 51°23.854 2°51.189 1 11.1 355 18
2009-09-22 07:58:44 51°23.869 2°51.186 359.2 11.1 351 17.5
2009-09-22 07:58:49 51°23.884 2°51.186 1.6 10.8 -999 16.4
2009-09-22 07:58:54 51°23.899 2°51.182 359.5 10.9 352 17.2
2009-09-22 07:58:59 51°23.914 2°51.181 0.9 10.9 359 18.3
2009-09-22 07:59:04 51°23.929 2°51.178 1.9 11.1 354 18.9
2009-09-22 07:59:09 51°23.944 2°51.176 1.2 11 355 18.7
2009-09-22 07:59:14 51°23.959 2°51.175 1.6 11 357 19
2009-09-22 07:59:19 51°23.974 2°51.174 1.5 10.9 356 18.9
2009-09-22 07:59:24 51°23.99 2°51.172 1.7 11 355 19.3
2009-09-22 07:59:28 51°24.002 2°51.171 2.2 11.1 357 19.3
2009-09-22 07:59:34 51°24.02 2°51.168 1.8 11.1 354 17.3
2009-09-22 07:59:39 51°24.035 2°51.167 2.2 11 357 17.8
2009-09-22 07:59:44 51°24.051 2°51.164 1.4 11.1 353 19
2009-09-22 07:59:49 51°24.066 2°51.162 0.8 11 356 18.3
2009-09-22 07:59:54 51°24.081 2°51.159 0.4 11.1 353 18.9
2009-09-22 07:59:59 51°24.096 2°51.159 1 11 359 19.8
2009-09-22 08:00:04 51°24.112 2°51.155 0.8 11 353 19.6
2009-09-22 08:00:08 51°24.124 2°51.154 0.9 11 358 19.5
2009-09-22 08:00:14 51°24.142 2°51.152 2 11.1 355 19.5
2009-09-22 08:00:19 51°24.158 2°51.15 1.3 11.1 355 19.6
2009-09-22 08:00:24 51°24.173 2°51.149 1.5 11.1 358 20.2
2009-09-22 08:00:29 51°24.188 2°51.146 0.1 11.1 354 20.3
2009-09-22 08:00:34 51°24.204 2°51.145 1.2 11.1 358 20.5
2009-09-22 08:00:39 51°24.219 2°51.142 1.8 11.1 355 20.6
2009-09-22 08:00:44 51°24.234 2°51.139 0.4 11.1 354 20.8
2009-09-22 08:00:49 51°24.25 2°51.14 1.9 11.1 359 20.6
2009-09-22 08:00:54 51°24.265 2°51.135 0.1 11 351 20.5
2009-09-22 08:00:59 51°24.28 2°51.134 0.3 10.9 356 20.4
2009-09-22 08:01:04 51°24.295 2°51.132 1.7 10.9 357 20.6
2009-09-22 08:01:09 51°24.31 2°51.129 0.5 10.9 354 21
2009-09-22 08:01:14 51°24.325 2°51.129 1.8 11 358 21.3
2009-09-22 08:01:19 51°24.34 2°51.127 1 10.8 357 20.9
2009-09-22 08:01:24 51°24.355 2°51.126 2.9 10.8 358 21.1
2009-09-22 08:01:29 51°24.37 2°51.123 1.8 11 353 20.7
2009-09-22 08:01:34 51°24.385 2°51.121 1.5 11 356 20.4
2009-09-22 08:01:39 51°24.401 2°51.119 1.2 11 355 20.6
2009-09-22 08:01:44 51°24.416 2°51.118 1.1 11 358 20.9
2009-09-22 08:01:49 51°24.431 2°51.116 1.7 11 354 20.6
2009-09-22 08:01:54 51°24.446 2°51.114 2.2 10.9 355 20.4
2009-09-22 08:01:59 51°24.461 2°51.113 2.6 10.9 358 20.9
2009-09-22 08:02:04 51°24.476 2°51.111 1.4 10.9 356 20.5
2009-09-22 08:02:09 51°24.491 2°51.109 2.1 10.9 355 20.2
2009-09-22 08:02:14 51°24.506 2°51.107 1.4 11 355 20.5
2009-09-22 08:02:19 51°24.521 2°51.106 1.9 10.9 356 20.3
2009-09-22 08:02:24 51°24.536 2°51.104 1.4 10.9 357 20.7
2009-09-22 08:02:29 51°24.552 2°51.101 0.4 11 355 20.7
2009-09-22 08:02:34 51°24.567 2°51.102 3.5 10.9 -999 20.6
2009-09-22 08:02:39 51°24.582 2°51.099 2.3 10.9 353 20.6
2009-09-22 08:02:44 51°24.597 2°51.097 0.6 10.9 355 21.2
2009-09-22 08:02:49 51°24.612 2°51.097 2.9 10.9 359 21.5
2009-09-22 08:02:54 51°24.627 2°51.093 1.9 11 352 21.4
2009-09-22 08:02:59 51°24.642 2°51.093 2.1 10.8 358 21.6
2009-09-22 08:03:04 51°24.657 2°51.09 1.7 10.9 355 21.6
2009-09-22 08:03:09 51°24.672 2°51.088 2.2 10.9 355 21.4
2009-09-22 08:03:14 51°24.687 2°51.086 1.8 11 355 21.5
2009-09-22 08:03:19 51°24.702 2°51.084 0.8 11 355 21.4
2009-09-22 08:03:24 51°24.717 2°51.082 1.8 10.9 354 21.4
2009-09-22 08:03:29 51°24.733 2°51.08 1 11 354 21.4
2009-09-22 08:03:34 51°24.748 2°51.079 1.9 11 355 21.5
2009-09-22 08:03:39 51°24.763 2°51.075 0.6 10.9 353 21.3
2009-09-22 08:03:44 51°24.778 2°51.075 2.3 11 -999 21.7
2009-09-22 08:03:49 51°24.793 2°51.07 0.1 11 348 21.3
2009-09-22 08:03:54 51°24.808 2°51.071 1.2 10.9 358 21.5
2009-09-22 08:03:59 51°24.823 2°51.065 359.3 11 350 21.7
2009-09-22 08:04:04 51°24.838 2°51.065 359.8 10.8 357 21.6
2009-09-22 08:04:09 51°24.853 2°51.062 1.2 10.8 356 22.6
2009-09-22 08:04:14 51°24.868 2°51.062 0.5 10.9 359 22.3
2009-09-22 08:04:19 51°24.883 2°51.059 2.2 10.7 354 21.7
2009-09-22 08:04:24 51°24.898 2°51.057 1.1 10.6 356 21.3
2009-09-22 08:04:29 51°24.913 2°51.054 0.1 10.8 354 21.7
2009-09-22 08:04:34 51°24.928 2°51.052 0.5 10.8 355 21.9
2009-09-22 08:04:39 51°24.942 2°51.051 0.4 10.8 356 21.7
2009-09-22 08:04:44 51°24.957 2°51.048 0.3 10.8 355 21.4
2009-09-22 08:04:49 51°24.972 2°51.046 0.6 10.8 356 21.4
2009-09-22 08:04:54 51°24.987 2°51.043 0.9 10.8 354 21.3
2009-09-22 08:04:59 51°25.002 2°51.042 2.4 10.8 356 21.3
2009-09-22 08:05:04 51°25.017 2°51.039 0.9 10.9 355 21.7
2009-09-22 08:05:09 51°25.032 2°51.038 -999 10.7 357 21.3
2009-09-22 08:05:14 51°25.047 2°51.036 2.1 10.7 354 21.2
2009-09-22 08:05:19 51°25.062 2°51.034 1.7 10.8 356 21.6
2009-09-22 08:05:24 51°25.077 2°51.033 1 10.8 356 21.9
2009-09-22 08:05:29 51°25.092 2°51.03 1.7 10.8 355 21.4
2009-09-22 08:05:34 51°25.107 2°51.029 2 10.8 354 21.7
2009-09-22 08:05:39 51°25.122 2°51.026 359.2 10.8 356 21.7
2009-09-22 08:05:44 51°25.137 2°51.026 2.8 10.7 -999 22
2009-09-22 08:05:49 51°25.151 2°51.022 0.7 10.8 352 21.6
2009-09-22 08:05:54 51°25.166 2°51.021 2 10.7 358 21.7
2009-09-22 08:05:59 51°25.181 2°51.019 3.2 10.8 354 21.9
2009-09-22 08:06:04 51°25.196 2°51.016 359.3 10.8 353 21.6
2009-09-22 08:06:09 51°25.211 2°51.015 1.5 10.7 359 21.7
2009-09-22 08:06:14 51°25.226 2°51.01 0.6 10.8 350 21.3
2009-09-22 08:06:19 51°25.241 2°51.009 1.2 10.8 356 20.9
2009-09-22 08:06:24 51°25.256 2°51.006 1.5 10.8 354 21.3
2009-09-22 08:06:29 51°25.27 2°51.004 0.6 10.8 354 21.7
2009-09-22 08:06:34 51°25.285 2°51.002 -999 10.8 354 21.9
2009-09-22 08:06:39 51°25.3 2°50.999 0.6 10.7 353 21
2009-09-22 08:06:44 51°25.315 2°50.997 1.2 10.7 354 21.3
2009-09-22 08:06:49 51°25.329 2°50.994 0.4 10.7 355 21.8
2009-09-22 08:06:54 51°25.344 2°50.992 1 10.6 354 21.7
2009-09-22 08:06:59 51°25.359 2°50.988 0.2 10.7 352 21.4
2009-09-22 08:07:04 51°25.374 2°50.987 1.5 10.7 357 21.4
2009-09-22 08:07:09 51°25.389 2°50.983 359.5 10.8 353 21.6
2009-09-22 08:07:14 51°25.404 2°50.981 0.4 10.8 353 21.5
2009-09-22 08:07:19 51°25.418 2°50.979 1.1 10.8 355 22
2009-09-22 08:07:24 51°25.433 2°50.976 0.4 10.9 354 21.8
2009-09-22 08:07:29 51°25.448 2°50.974 1.8 10.7 354 21.6
2009-09-22 08:07:34 51°25.463 2°50.973 2.4 10.8 356 21.3
2009-09-22 08:07:39 51°25.478 2°50.97 2 10.8 353 22.1
2009-09-22 08:07:44 51°25.492 2°50.968 0.1 10.7 353 22.2
2009-09-22 08:07:49 51°25.507 2°50.965 0.8 10.8 353 21.9
2009-09-22 08:07:54 51°25.522 2°50.963 1.7 10.8 355 22
2009-09-22 08:07:59 51°25.537 2°50.96 1.6 10.8 355 21.9
2009-09-22 08:08:04 51°25.552 2°50.959 2.1 10.7 356 21.9
2009-09-22 08:08:09 51°25.567 2°50.956 1.2 10.8 354 22.2
2009-09-22 08:08:14 51°25.582 2°50.954 2.2 10.8 354 22.1
2009-09-22 08:08:19 51°25.596 2°50.952 1.2 10.9 355 22.2
2009-09-22 08:08:24 51°25.612 2°50.949 1 10.8 355 22.4
2009-09-22 08:08:29 51°25.626 2°50.946 359.5 10.8 353 22.7
2009-09-22 08:08:34 51°25.641 2°50.945 2.8 10.7 356 22.4
2009-09-22 08:08:39 51°25.656 2°50.941 0.8 10.9 351 22.1
2009-09-22 08:08:44 51°25.671 2°50.94 0.1 10.7 356 22.4
2009-09-22 08:08:49 51°25.686 2°50.936 0.3 10.8 352 22.3
2009-09-22 08:08:54 51°25.701 2°50.935 1.6 10.8 356 22.2
2009-09-22 08:08:59 51°25.716 2°50.931 1.3 10.9 353 22.3
2009-09-22 08:09:04 51°25.731 2°50.93 1.8 10.8 357 22.2
2009-09-22 08:09:09 51°25.746 2°50.927 1.8 10.8 355 21.9
2009-09-22 08:09:14 51°25.761 2°50.924 1.6 10.9 353 21.6
2009-09-22 08:09:19 51°25.775 2°50.923 1.1 10.8 357 21.7
2009-09-22 08:09:24 51°25.79 2°50.921 2.3 10.7 355 22.1
2009-09-22 08:09:29 51°25.805 2°50.918 0.1 10.8 355 22.2
2009-09-22 08:09:34 51°25.82 2°50.916 1.7 10.7 353 21.8
2009-09-22 08:09:39 51°25.835 2°50.913 1.2 10.8 354 21.8
2009-09-22 08:09:44 51°25.85 2°50.91 0.8 10.7 354 21.8
2009-09-22 08:09:49 51°25.865 2°50.908 1.7 10.9 353 21.8
2009-09-22 08:09:54 51°25.88 2°50.907 1.3 10.8 357 22
2009-09-22 08:09:59 51°25.895 2°50.904 0.6 10.8 354 22.1
2009-09-22 08:10:04 51°25.91 2°50.902 1.6 10.8 355 21.8
2009-09-22 08:10:09 51°25.924 2°50.9 2.8 10.9 354 21.5
2009-09-22 08:10:14 51°25.939 2°50.898 0.4 10.8 356 22.3
2009-09-22 08:10:19 51°25.954 2°50.897 1.7 10.8 358 22.4
2009-09-22 08:10:24 51°25.969 2°50.894 2.4 10.9 354 22.3
2009-09-22 08:10:29 51°25.984 2°50.891 0.4 10.8 353 22.2
2009-09-22 08:10:34 51°25.999 2°50.89 2.3 10.7 355 22.3
2009-09-22 08:10:39 51°26.014 2°50.887 0.8 10.8 355 22.1
2009-09-22 08:10:44 51°26.029 2°50.885 1.3 10.8 354 22.2
2009-09-22 08:10:49 51°26.044 2°50.884 2.2 10.8 356 21.8
2009-09-22 08:10:54 51°26.059 2°50.881 1 10.8 354 22.3
2009-09-22 08:10:59 51°26.074 2°50.88 2.4 10.8 357 22.2
2009-09-22 08:11:04 51°26.089 2°50.876 1.6 11 352 21.9
2009-09-22 08:11:09 51°26.104 2°50.875 1.1 10.8 357 22.3
2009-09-22 08:11:14 51°26.119 2°50.872 1.8 10.9 354 22.4
2009-09-22 08:11:19 51°26.134 2°50.871 2 10.9 355 22.4
2009-09-22 08:11:24 51°26.149 2°50.869 1.7 10.9 356 22.2
2009-09-22 08:11:28 51°26.161 2°50.867 3 11 354 22
2009-09-22 08:11:34 51°26.179 2°50.865 1.1 10.9 355 21.8
2009-09-22 08:11:39 51°26.194 2°50.862 0.8 10.9 354 22.1
2009-09-22 08:11:44 51°26.209 2°50.861 2 10.9 358 22.6
2009-09-22 08:11:49 51°26.224 2°50.858 359.4 10.7 354 22.2
2009-09-22 08:11:54 51°26.239 2°50.856 2.1 10.8 355 21.7
2009-09-22 08:11:59 51°26.254 2°50.854 1.1 10.8 356 22.2
2009-09-22 08:12:04 51°26.269 2°50.852 359.9 10.7 353 22.5
2009-09-22 08:12:09 51°26.284 2°50.85 0.9 10.8 357 22.4
2009-09-22 08:12:14 51°26.299 2°50.847 0.4 10.9 354 22.8
2009-09-22 08:12:19 51°26.314 2°50.845 0.8 10.7 356 22.7
2009-09-22 08:12:24 51°26.329 2°50.843 1 10.8 355 22.8
2009-09-22 08:12:28 51°26.341 2°50.841 0.4 11 354 22.6
2009-09-22 08:12:34 51°26.359 2°50.838 1 10.7 354 22.2
2009-09-22 08:12:39 51°26.374 2°50.836 0.5 10.8 356 22.2
2009-09-22 08:12:44 51°26.389 2°50.832 0.5 11 351 21.9
2009-09-22 08:12:49 51°26.404 2°50.831 1.5 10.8 356 21.7
2009-09-22 08:12:54 51°26.419 2°50.829 359.3 10.9 355 22.2
2009-09-22 08:12:59 51°26.434 2°50.825 1 10.9 352 21.5
2009-09-22 08:13:04 51°26.449 2°50.826 2.3 10.7 -999 22
2009-09-22 08:13:09 51°26.464 2°50.822 0.1 10.9 353 22
2009-09-22 08:13:14 51°26.479 2°50.819 0.6 10.9 352 21.8
2009-09-22 08:13:19 51°26.494 2°50.818 0.8 10.8 358 21.6
2009-09-22 08:13:24 51°26.509 2°50.814 1.1 10.9 352 21.5
2009-09-22 08:13:28 51°26.521 2°50.813 359.4 10.9 358 21.9
2009-09-22 08:13:34 51°26.539 2°50.809 0.7 10.9 353 21.8